GW3327 Weather Reports


time (UTC)temp
C
wind
direction
speed
KPH
gust
KPH
rain 1hr
cm
rain 24hr
cm
rain mn
cm
humidity
%
barometer
mb
20260505124932 18 171 3.2 4.8 0.00 0.20 0.20 61 1011.6
20260505124429 18 166 6.4 9.7 0.00 0.20 0.20 62 1011.5
20260505123925 18 206 4.8 6.4 0.00 0.20 0.20 62 1011.5
20260505123422 18 179 3.2 4.8 0.00 0.20 0.20 64 1011.7
20260505122918 17 161 1.6 3.2 0.00 0.20 0.20 65 1011.6
20260505122415 17 193 1.6 4.8 0.00 0.20 0.20 69 1011.7
20260505121911 17 73 3.2 6.4 0.00 0.20 0.20 66 1011.7
20260505121408 17 236 3.2 6.4 0.00 0.20 0.20 66 1012.0
20260505120904 17 195 1.6 4.8 0.00 0.20 0.20 68 1011.9
20260505120401 16 204 6.4 9.7 0.00 0.20 0.20 68 1011.9
20260505115859 16 195 1.6 3.2 0.00 0.20 0.20 73 1012.0
20260505115357 16 200 0.0 3.2 0.00 0.20 0.20 74 1012.1
20260505114855 16 200 3.2 4.8 0.00 0.20 0.20 74 1012.1
20260505114351 15 198 0.0 3.2 0.00 0.20 0.20 74 1012.1
20260505113847 15 187 0.0 3.2 0.00 0.20 0.20 76 1012.0
20260505113344 15 103 0.0 1.6 0.00 0.20 0.20 78 1012.1
20260505112839 15 236 0.0 1.6 0.00 0.20 0.20 78 1011.9
20260505112337 14 205 0.0 0.0 0.00 0.20 0.20 80 1012.1
20260505111832 14 217 0.0 0.0 0.00 0.20 0.20 79 1012.3
20260505111328 14 193 0.0 1.6 0.00 0.20 0.20 80 1012.0
20260505110824 13 209 0.0 1.6 0.00 0.20 0.20 81 1012.0
20260505110322 13 205 0.0 0.0 0.00 0.20 0.20 80 1011.9
20260505101756 13 212 0.0 0.0 0.00 0.20 0.20 86 1011.2
20260505101252 12 213 0.0 3.2 0.00 0.20 0.20 87 1011.2
20260505100748 12 251 0.0 0.0 0.00 0.20 0.20 91 1011.2
20260505100245 11 253 0.0 0.0 0.00 0.20 0.20 94 1011.1
20260505095741 11 249 0.0 0.0 0.00 0.20 0.20 95 1011.3
20260505095239 11 249 0.0 0.0 0.00 0.20 0.20 95 1011.2
20260505094734 11 249 0.0 0.0 0.00 0.20 0.20 95 1011.1
20260505094231 11 248 0.0 0.0 0.00 0.20 0.20 95 1011.2
20260505093727 11 218 0.0 0.0 0.00 0.20 0.20 95 1011.1
20260505093225 11 218 0.0 0.0 0.00 0.20 0.20 94 1011.2
20260505092721 11 218 0.0 0.0 0.00 0.20 0.20 93 1011.1
20260505092220 11 218 0.0 0.0 0.00 0.20 0.20 90 1011.1
20260505091717 12 218 0.0 0.0 0.00 0.20 0.20 90 1011.0
20260505091215 12 218 0.0 0.0 0.00 0.20 0.20 85 1011.2
20260505090712 12 218 0.0 0.0 0.00 0.20 0.20 85 1011.3
20260505090210 12 211 0.0 0.0 0.00 0.20 0.20 86 1011.5
20260505085708 12 210 0.0 0.0 0.00 0.20 0.20 86 1011.4
20260505085206 13 212 1.6 1.6 0.13 0.20 0.20 84 1011.5
20260505084703 12 193 1.6 3.2 0.00 0.18 0.18 84 1011.5
20260505084201 12 217 1.6 4.8 0.00 0.18 0.18 85 1011.6
20260505083658 12 240 0.0 1.6 0.00 0.18 0.18 87 1011.4
20260505083155 11 250 0.0 0.0 0.00 0.18 0.18 92 1011.5
20260505082651 11 207 3.2 3.2 0.00 0.18 0.18 93 1011.5
20260505082148 10 217 6.4 9.7 0.00 0.18 0.18 96 1011.5
20260505081644 11 213 0.0 0.0 0.00 0.18 0.18 94 1011.0
20260505081142 11 225 0.0 3.2 0.00 0.18 0.18 94 1010.7
20260505080638 10 225 0.0 0.0 0.00 0.18 0.18 96 1010.7
20260505080134 10 224 0.0 0.0 0.00 0.18 0.18 96 1010.6
20260505075631 10 223 0.0 1.6 0.00 0.18 0.18 97 1010.7
20260505075127 10 256 0.0 0.0 0.00 0.18 0.18 96 1010.7
20260505074624 10 256 0.0 0.0 0.00 0.18 0.18 96 1010.6
20260505074121 10 256 0.0 0.0 0.00 0.18 0.18 95 1010.6
20260505073619 10 256 0.0 0.0 0.00 0.18 0.18 94 1010.6
20260505073117 10 256 0.0 0.0 0.00 0.18 0.18 93 1010.6
20260505072612 11 256 0.0 0.0 0.00 0.18 0.18 92 1010.6
20260505072109 11 256 0.0 0.0 0.00 0.18 0.18 90 1010.4
20260505071604 12 256 0.0 0.0 0.00 0.18 0.18 89 1010.3
20260505071103 12 256 0.0 1.6 0.00 0.18 0.18 88 1010.6
20260505070600 12 214 1.6 1.6 0.00 0.18 0.18 89 1010.6
20260505070056 13 214 0.0 0.0 0.00 0.18 0.18 88 1010.6
20260505065552 13 214 0.0 1.6 0.48 0.18 0.18 85 1010.8
20260505065049 14 221 3.2 6.4 0.89 0.18 0.18 83 1011.0
20260505064545 15 267 1.6 9.7 0.48 0.08 0.08 76 1011.2
20260505064044 15 229 1.6 1.6 0.18 0.03 0.03 72 1011.1
20260505063541 13 237 0.0 6.4 0.00 0.00 0.00 71 1010.7
20260505063037 12 215 0.0 0.0 0.00 0.00 0.00 75 1010.7
20260505062533 12 215 0.0 0.0 0.00 0.00 0.00 79 1010.6
20260505062031 12 224 0.0 0.0 0.00 0.00 0.00 79 1010.6
20260505061528 12 224 0.0 0.0 0.00 0.00 0.00 80 1010.4
20260505061026 11 225 0.0 0.0 0.00 0.00 0.00 80 1010.5
20260505060523 11 224 0.0 0.0 0.00 0.00 0.00 81 1010.6
20260505060020 12 224 0.0 0.0 0.00 0.00 0.00 79 1010.7
20260505055510 12 227 0.0 0.0 0.00 0.00 0.00 77 1010.7
20260505055007 12 224 0.0 0.0 0.00 0.00 0.00 77 1010.8
20260505054504 13 224 0.0 0.0 0.00 0.00 0.00 76 1011.1
20260505054002 13 224 0.0 0.0 0.00 0.00 0.00 73 1011.0
20260505053459 13 247 0.0 0.0 0.00 0.00 0.00 73 1011.0
20260505052955 14 277 0.0 0.0 0.00 0.00 0.00 72 1011.0
20260505052453 14 210 0.0 0.0 0.00 0.00 0.00 72 1010.9
20260505051950 14 215 0.0 0.0 0.00 0.00 0.00 71 1011.2
20260505051447 14 205 0.0 0.0 0.00 0.00 0.00 70 1010.8
20260505050945 15 204 0.0 0.0 0.00 0.00 0.00 69 1011.1
20260505050443 15 204 0.0 0.0 0.00 0.00 0.00 70 1010.9
20260505041411 15 217 0.0 0.0 0.00 0.00 0.00 71 1010.8
20260505040908 15 221 0.0 0.0 0.00 0.00 0.00 70 1010.8
20260505040405 15 201 0.0 0.0 0.00 0.00 0.00 69 1010.7
20260505035902 15 210 0.0 1.6 0.00 0.00 0.00 68 1010.7
20260505035358 15 213 0.0 0.0 0.00 0.00 0.00 68 1010.8
20260505034855 15 352 0.0 0.0 0.00 0.00 0.00 70 1010.7
20260505034352 15 221 0.0 0.0 0.00 0.00 0.00 71 1010.7
20260505033849 14 198 0.0 3.2 0.00 0.00 0.00 71 1010.9
20260505033345 14 229 0.0 0.0 0.00 0.00 0.00 72 1010.8
20260505032844 14 229 0.0 0.0 0.00 0.00 0.00 71 1011.0
20260505032340 14 235 0.0 0.0 0.00 0.00 0.00 71 1010.8
20260505031837 15 222 0.0 0.0 0.00 0.00 0.00 71 1010.8
20260505031333 15 232 0.0 0.0 0.00 0.00 0.00 70 1011.0
20260505030831 15 201 0.0 1.6 0.00 0.00 0.00 68 1011.0
20260505030327 15 202 1.6 3.2 0.00 0.00 0.00 68 1010.9
20260505025822 15 221 0.0 0.0 0.00 0.00 0.00 69 1010.8
20260505025320 15 241 0.0 1.6 0.00 0.00 0.00 68 1010.9
20260505024818 16 202 0.0 1.6 0.00 0.00 0.00 68 1011.0
20260505024316 15 150 3.2 4.8 0.00 0.00 0.00 67 1011.0
20260505023813 15 255 0.0 1.6 0.00 0.00 0.00 68 1011.0
20260505023310 15 220 1.6 4.8 0.00 0.00 0.00 68 1011.1
20260505022807 15 217 0.0 0.0 0.00 0.00 0.00 69 1011.0
20260505022304 15 217 0.0 0.0 0.00 0.00 0.00 68 1011.0
20260505021801 15 218 0.0 4.8 0.00 0.00 0.00 68 1011.0
20260505021258 15 245 0.0 3.2 0.00 0.00 0.00 68 1011.3
20260505020753 15 220 0.0 0.0 0.00 0.00 0.00 69 1011.3
20260505020248 16 220 0.0 1.6 0.00 0.00 0.00 67 1010.8
20260505015746 16 227 0.0 1.6 0.00 0.00 0.00 67 1010.8
20260505015243 16 217 0.0 0.0 0.00 0.00 0.00 66 1011.0
20260505014740 16 225 0.0 3.2 0.00 0.00 0.00 68 1011.0
20260505014238 15 234 0.0 0.0 0.00 0.00 0.00 69 1011.0
20260505013734 15 234 0.0 0.0 0.00 0.00 0.00 69 1010.9
20260505013231 15 234 0.0 0.0 0.00 0.00 0.00 70 1010.9
20260505012729 16 234 0.0 0.0 0.00 0.00 0.00 69 1010.7
20260505012226 16 234 0.0 0.0 0.00 0.00 0.00 67 1010.5
20260505011722 16 234 0.0 0.0 0.00 0.00 0.00 65 1010.6
20260505011220 16 214 3.2 3.2 0.00 0.00 0.00 63 1010.6
20260505010715 16 214 0.0 1.6 0.00 0.00 0.00 62 1010.4
20260505010211 16 237 0.0 0.0 0.00 0.00 0.00 62 1010.7
20260505005708 16 237 0.0 6.4 0.00 0.00 0.00 62 1010.5
20260505005205 17 216 0.0 3.2 0.00 0.00 0.00 60 1010.5
20260505004702 16 205 1.6 6.4 0.00 0.00 0.00 64 1010.5
20260505004159 16 209 0.0 0.0 0.00 0.00 0.00 62 1010.5
20260505003656 17 209 0.0 1.6 0.00 0.00 0.00 61 1010.4
20260505003153 17 209 0.0 0.0 0.00 0.00 0.00 58 1010.4
20260505002650 18 169 4.8 6.4 0.00 0.00 0.00 56 1010.4
20260505002147 18 222 1.6 9.7 0.00 0.00 0.00 58 1010.0
20260505001643 18 217 0.0 1.6 0.00 0.00 0.00 58 1010.3
20260505001141 17 225 0.0 0.0 0.00 0.00 0.00 59 1010.6
20260505000638 18 148 4.8 6.4 0.00 0.00 0.00 56 1010.4
20260505000137 18 237 0.0 4.8 0.00 0.00 0.00 57 1010.3
20260504235632 18 260 1.6 1.6 0.00 0.00 0.00 56 1009.9
20260504235128 18 193 0.0 4.8 0.00 0.00 0.00 56 1010.1
20260504234626 18 260 3.2 6.4 0.00 0.00 0.00 55 1010.1
20260504234123 18 187 3.2 4.8 0.00 0.00 0.00 57 1010.0
20260504233619 18 167 0.0 1.6 0.00 0.00 0.00 54 1010.1
20260504233115 19 219 0.0 4.8 0.00 0.00 0.00 52 1010.0
20260504232613 20 212 3.2 9.7 0.00 0.00 0.00 52 1010.1
20260504232110 19 253 3.2 4.8 0.00 0.00 0.00 52 1010.1
20260504231606 19 237 1.6 11.3 0.00 0.00 0.00 53 1010.0
20260504231102 19 241 1.6 1.6 0.00 0.00 0.00 54 1009.9
20260504230558 19 218 1.6 3.2 0.00 0.00 0.00 53 1009.9
20260504230053 19 239 3.2 6.4 0.00 0.00 0.00 51 1009.9
20260504225550 20 197 4.8 6.4 0.00 0.00 0.00 50 1009.9
20260504225046 20 224 0.0 3.2 0.00 0.00 0.00 50 1009.9
20260504224543 20 223 4.8 9.7 0.00 0.00 0.00 50 1009.9
20260504224040 20 219 1.6 4.8 0.00 0.00 0.00 49 1009.8
20260504223537 20 211 6.4 11.3 0.00 0.00 0.00 50 1009.7
20260504223033 20 194 3.2 6.4 0.00 0.00 0.00 48 1009.7
20260504222530 20 275 0.0 3.2 0.00 0.00 0.00 47 1009.8
20260504222027 21 220 9.7 12.9 0.00 0.00 0.00 44 1009.9
20260504221524 21 220 0.0 6.4 0.00 0.00 0.00 46 1010.0
20260504221021 21 191 6.4 12.9 0.00 0.00 0.00 42 1009.9
20260504220518 21 224 3.2 6.4 0.00 0.00 0.00 43 1009.8
20260504220015 21 250 3.2 12.9 0.00 0.00 0.00 42 1009.9
20260504215511 21 252 0.0 1.6 0.00 0.00 0.00 44 1010.0
20260504215009 20 237 0.0 3.2 0.00 0.00 0.00 48 1010.0
20260504214504 20 302 6.4 9.7 0.00 0.00 0.00 48 1009.8
20260504214001 21 218 8.0 9.7 0.00 0.00 0.00 49 1009.8
20260504213457 20 189 1.6 4.8 0.00 0.00 0.00 51 1010.0
20260504212955 21 188 4.8 16.1 0.00 0.00 0.00 47 1009.8
20260504212450 20 243 1.6 3.2 0.00 0.00 0.00 48 1010.0
20260504211948 20 242 3.2 6.4 0.00 0.00 0.00 49 1009.8
20260504211444 21 203 0.0 9.7 0.00 0.00 0.00 49 1009.7
20260504210942 22 270 4.8 12.9 0.00 0.00 0.00 44 1009.7
20260504210439 21 167 3.2 4.8 0.00 0.00 0.00 49 1009.6
20260504205936 21 184 3.2 9.7 0.00 0.00 0.00 47 1009.9
20260504205433 20 180 1.6 4.8 0.00 0.00 0.00 51 1009.8
20260504204931 20 231 3.2 14.5 0.00 0.00 0.00 47 1009.6
20260504204429 20 173 8.0 17.7 0.00 0.00 0.00 47 1009.7
20260504203928 21 275 8.0 16.1 0.00 0.00 0.00 48 1009.6
20260504203425 20 211 1.6 11.3 0.00 0.00 0.00 54 1009.7
20260504202921 20 153 3.2 6.4 0.00 0.00 0.00 49 1009.7
20260504202418 20 241 1.6 9.7 0.00 0.00 0.00 50 1009.7
20260504201915 20 250 1.6 11.3 0.00 0.00 0.00 54 1009.8
20260504201412 21 179 3.2 9.7 0.00 0.00 0.00 47 1009.8
20260504200910 21 210 1.6 4.8 0.00 0.00 0.00 50 1009.7
20260504200406 20 206 1.6 9.7 0.00 0.00 0.00 49 1009.9
20260504195903 21 153 4.8 9.7 0.00 0.00 0.00 51 1009.9
20260504195358 20 239 1.6 12.9 0.00 0.00 0.00 53 1009.7
20260504194855 21 174 6.4 16.1 0.00 0.00 0.00 49 1009.9
20260504194351 21 153 1.6 4.8 0.00 0.00 0.00 52 1010.0
20260504193847 20 156 6.4 12.9 0.00 0.00 0.00 50 1010.0
20260504193344 20 196 3.2 4.8 0.00 0.00 0.00 50 1010.4
20260504192844 20 209 0.0 1.6 0.00 0.00 0.00 52 1010.3
20260504192341 20 233 4.8 6.4 0.00 0.00 0.00 47 1010.4
20260504191839 20 224 6.4 11.3 0.00 0.00 0.00 50 1010.5
20260504191337 20 166 8.0 12.9 0.00 0.00 0.00 51 1010.6
20260504190832 20 221 3.2 4.8 0.00 0.00 0.00 49 1010.7
20260504190328 21 143 3.2 11.3 0.00 0.00 0.00 48 1010.7
20260504185825 21 208 0.0 6.4 0.00 0.00 0.00 46 1010.8
20260504185322 20 183 6.4 11.3 0.00 0.00 0.00 47 1010.8
20260504184818 20 208 3.2 11.3 0.00 0.00 0.00 49 1011.0
20260504184314 20 211 3.2 12.9 0.00 0.00 0.00 50 1011.0
20260504183809 20 233 4.8 14.5 0.00 0.00 0.00 49 1011.2
20260504183307 19 186 4.8 6.4 0.00 0.00 0.00 47 1011.1
20260504182805 20 162 4.8 11.3 0.00 0.00 0.00 50 1011.2
20260504182304 19 227 0.0 4.8 0.00 0.00 0.00 50 1011.1
20260504181759 19 155 4.8 9.7 0.00 0.00 0.00 49 1011.1
20260504181256 19 234 0.0 1.6 0.00 0.00 0.00 50 1011.1
20260504180755 19 199 3.2 6.4 0.00 0.00 0.00 46 1011.4
20260504180254 20 177 8.0 9.7 0.00 0.00 0.00 48 1011.2
20260504175751 20 194 3.2 11.3 0.00 0.00 0.00 49 1011.5
20260504175248 19 218 1.6 12.9 0.00 0.00 0.00 50 1011.3
20260504174745 20 154 3.2 4.8 0.00 0.00 0.00 45 1011.4
20260504174243 20 202 0.0 3.2 0.00 0.00 0.00 49 1011.3
20260504173739 20 165 6.4 9.7 0.00 0.00 0.00 47 1011.3
20260504173237 20 202 1.6 9.7 0.00 0.00 0.00 48 1011.5
20260504172733 19 187 3.2 12.9 0.00 0.00 0.00 49 1011.7
20260504172230 20 164 9.7 17.7 0.00 0.00 0.00 45 1011.8
20260504171726 21 175 6.4 12.9 0.00 0.00 0.00 44 1012.0
20260504171223 20 228 3.2 16.1 0.00 0.00 0.00 49 1011.8
20260504170720 20 228 3.2 11.3 0.00 0.00 0.00 48 1011.8
20260504170217 19 207 3.2 9.7 0.00 0.00 0.00 47 1011.7
20260504160136 17 195 3.2 9.7 0.00 0.00 0.00 50 1012.8
20260504151103 17 174 3.2 16.1 0.00 0.00 0.00 50 1013.0
20260504150601 17 251 0.0 1.6 0.00 0.00 0.00 50 1012.8
20260504141020 15 170 4.8 14.5 0.00 0.00 0.00 51 1013.3
20260504140517 15 156 6.4 12.9 0.00 0.00 0.00 52 1013.5
20260504130442 12 206 1.6 6.4 0.00 0.00 0.00 59 1013.6